Hourly Data Report for October 12, 2016

All times are specified in Local Standard Time (LST). Add 1 hour to adjust for Daylight Saving Time where and when it is observed.

RANKIN INLET A
NUNAVUT

62°48'38.000" N
92°06'53.000" W
32.30 m
2303405
71083
YRT

Download Data

Hourly Data (October 2016)
Hourly Data Report for October 12, 2016
Temp Definition
°C
Dew Point Temp Definition
°C
Rel Hum Definition
%
Wind Dir Definition
10's deg

Wind Spd Definition
km/h
Visibility Definition
km
Stn Press Definition
kPa
Hmdx Definition


Wind Chill Definition


Weather Definition


TIME
00:00 Legend Double Dagger -0.7 -2.0 91 24 19 9.7 100.18   -6 Snow
01:00 Legend Double Dagger -3.2 -4.0 94 29 31 6.4 100.15   -11 Snow
02:00 Legend Double Dagger -4.3 -5.6 91 29 35 9.7 100.13   -13 Snow
03:00 Legend Double Dagger -5.3 -6.5 91 29 37 16.1 100.13   -14 Snow
04:00 Legend Double Dagger -6.3 -7.4 92 29 35 16.1 100.14   -15 Snow
05:00 Legend Double Dagger -5.8 -7.9 85 28 27 24.1 100.13   -14 LegendNANA
06:00 Legend Double Dagger -5.9 -8.8 80 28 36 24.1 100.10   -15 Snow
07:00 Legend Double Dagger -6.1 -8.4 84 27 29 24.1 100.10   -14 LegendNANA
08:00 Legend Double Dagger -6.2 -8.5 84 26 26 24.1 100.07   -14 Blowing Snow
09:00 Legend Double Dagger -6.3 -8.7 83 27 28 24.1 100.04   -14 Blowing Snow
10:00 Legend Double Dagger -6.1 -8.9 81 26 31 24.1 99.99   -15 Blowing Snow
11:00 Legend Double Dagger -5.7 -9.3 76 26 28 24.1 99.97   -14 Blowing Snow
12:00 Legend Double Dagger -5.4 -9.7 72 25 28 24.1 99.92   -13 Blowing Snow
13:00 Legend Double Dagger -5.0 -10.2 67 24 28 24.1 99.88   -13 LegendNANA
14:00 Legend Double Dagger -4.9 -9.2 72 23 29 24.1 99.86   -13 LegendNANA
15:00 Legend Double Dagger -4.6 -9.8 67 23 30 24.1 99.81   -12 Mainly Clear
16:00 Legend Double Dagger -5.2 -9.7 71 21 31 24.1 99.76   -13 LegendNANA
17:00 Legend Double Dagger -5.2 -9.9 70 21 25 24.1 99.72   -13 LegendNANA
18:00 Legend Double Dagger -5.1 -10.5 66 19 23 24.1 99.68   -12 Mainly Clear
19:00 Legend Double Dagger -4.7 -10.9 62 18 24 24.1 99.63   -12 LegendNANA
20:00 Legend Double Dagger -5.2 -10.6 66 14 13 24.1 99.60   -10 LegendNANA
21:00 Legend Double Dagger -5.0 -8.4 77 5 13 24.1 99.59   -10 Mainly Clear
22:00 Legend Double Dagger -5.6 -7.9 84 4 19 24.1 99.61   -12 LegendNANA
23:00 Legend Double Dagger -5.6 -8.4 81 6 21 24.1 99.62   -12 LegendNANA

Notes on Data Quality.

Legend

  • E = Estimated
  • M = Missing
  • NA = Not Available
  • ‡ = Partner data that is not subject to review by the National Climate Archives
Date modified: